Погода в Майкао

Колумбия     11°22′47″N   72°14′39″W
темп.,
°C
ветер,
м/с
пор.,
м/с
влажн.,
%
обл.,
%
осадки,
мм/ч
давл.,
гПа
погр.,
м
12 мая, ср
ср1201:00+26в11178055 0.0 1010710
04:00+26в111581100 0.0 1010786
07:00+27в111477100 0.1 1011942
10:00+30в111260100 0.1 10121252
13:00+32вюв101151100 0.1 10101336
16:00+31в101049100 0.0 10081067
19:00+28в91362100 0.0 1010703
22:00+27в9146798 0.0 1012781
13 мая, чт
чт1301:00+26в10157746 0.0 1010593
04:00+26в9147952 0.0 1010644
07:00+27в12157336 0.0 1011871
10:00+31в1213566 0.0 10121272
13:00+32в10104860 0.0 10091362
16:00+32в101046100 0.0 10081217
19:00+28всв101364100 0.0 1009657
22:00+27в7137798 0.0 1011783
14 мая, пт
пт1401:00+26в81280100 0.0 1010629
04:00+26всв81381100 0.0 1010607
07:00+27в101275100 0.0 1012810
10:00+31в101056100 0.0 10121256
13:00+32вюв9948100 0.0 10091341
16:00+32в894759 0.0 10071096
19:00+29в811625 0.0 1009483
22:00+27всв711725 0.0 1011627
15 мая, сб
сб1501:00+26всв577726 0.0 1010575
04:00+26в478042 0.0 1010429
07:00+27всв8107474 0.1 1012963
10:00+31в995689 0.0 10121225
13:00+33в88495 0.0 10091267
16:00+33в77484 0.0 10071101
19:00+29в8116220 0.0 1009524
22:00+27всв7127016 0.0 1011618
16 мая, вс
вс1601:00+26всв477129 0.0 1010295
04:00+26всв467775 0.0 1010298
07:00+27всв7975100 0.1 1012882
10:00+31в91057100 0.0 10121276
13:00+33в7749100 0.0 10101270
16:00+32в6649100 0.0 10081104
19:00+29в71063100 0.0 1010495
22:00+27в61075100 0.0 1012606